Weather History for Rochelle, IL

Change the Weather History Date:

Tuesday, February 21, 2012

  Actual Average (KRFD) Record (KRFD)
Temperature  
Mean Temperature 37 °F 28 °F  
Max Temperature 42 °F 36 °F 64 °F (1930)
Min Temperature 32 °F 20 °F -10 °F (1963)
Degree Days  
Heating Degree Days 28 37  
Month to date heating degree days 844  
Since 1 July heating degree days 4753  
Cooling Degree Days 0 0  
Month to date cooling degree days 0  
Year to date cooling degree days 0  
Moisture  
Dew Point 33 °F    
Average Humidity 90    
Maximum Humidity 100    
Minimum Humidity 76    
Precipitation  
Precipitation 0.11 in 0.05 in 1.25 in (1913)
Month to date precipitation 0.98  
Year to date precipitation 2.35  
Snow  
Snow 0.00 in 0.30 in 6.00 in (1913)
Month to date snowfall 6.1  
Since 1 July snowfall 29.4  
Snow Depth -    
Sea Level Pressure  
Sea Level Pressure 29.68 in    
Wind  
Wind Speed 12 mph (SW)    
Max Wind Speed 26 mph    
Max Gust Speed 32 mph    
Visibility 7 miles    
Events Rain , Snow    
T = Trace of Precipitation, MM = Missing Value Source: NWS Daily Summary

Daily Weather History Graph

Daily Weather History Graph

Search for Another Location

Airport:

Trip Planner

Search our weather history database for the weather conditions in past years. The results will help you decide how hot, cold, wet, or windy it might be!

Date:

Astronomy

Feb. 21, 2012 Rise Set
Actual Time 6:44 AM CST 5:36 PM CST
Civil Twilight 6:15 AM CST 6:04 PM CST
Nautical Twilight 5:43 AM CST 6:37 PM CST
Astronomical Twilight 5:11 AM CST 7:09 PM CST
Moon 6:12 AM CST (2/21) 5:43 PM CST (2/21)
Length of Visible Light 11h 48m
Length of Day
10h 52m
Waning Crescent, 0% of the Moon is Illuminated
Feb 21
Waning Crescent
Feb 21
New
Feb 29
First Quarter
Mar 8
Full
Mar 14
Last Quarter

Hourly Weather History & Observations

Time (CST) Temp. Windchill Dew Point Humidity Pressure Visibility Wind Dir Wind Speed Gust Speed Precip Events Conditions
12:15 AM 34.7 °F 25.5 °F 28.0 °F 77% 29.82 in 10.0 mi SE 13.8 mph - N/A   Overcast
12:35 AM 34.7 °F 26.4 °F 27.9 °F 76% 29.81 in 10.0 mi SE 11.5 mph - N/A   Overcast
12:55 AM 34.7 °F 26.4 °F 28.0 °F 77% 29.79 in 10.0 mi SE 11.5 mph - N/A   Overcast
1:15 AM 34.5 °F 26.7 °F 28.4 °F 78% 29.79 in 10.0 mi SSE 10.4 mph - N/A   Overcast
1:35 AM 34.0 °F 26.6 °F 28.8 °F 81% 29.78 in 10.0 mi South 9.2 mph - N/A   Overcast
1:55 AM 33.8 °F 27.0 °F 28.6 °F 81% 29.76 in 10.0 mi SSE 8.1 mph - N/A   Overcast
2:15 AM 33.4 °F 25.4 °F 29.3 °F 85% 29.73 in 10.0 mi SSE 10.4 mph - N/A   Overcast
2:35 AM 33.3 °F 24.1 °F 30.6 °F 90% 29.71 in 5.0 mi SSE 12.7 mph - N/A Snow Light Snow
2:55 AM 32.9 °F 23.7 °F 31.3 °F 94% 29.69 in 10.0 mi SSE 12.7 mph - N/A   Light Drizzle
3:35 AM 32.9 °F 24.7 °F 31.8 °F 96% 29.67 in 7.0 mi SSE 10.4 mph - N/A Rain Light Rain
3:55 AM 32.9 °F 25.3 °F 32.0 °F 96% 29.66 in 5.0 mi SSE 9.2 mph - N/A Rain Light Rain
4:15 AM 32.4 °F 26.0 °F 32.0 °F 99% 29.65 in 2.0 mi SSE 6.9 mph - N/A Rain Heavy Rain
4:35 AM 32.2 °F 25.8 °F 32.0 °F 99% 29.65 in 2.0 mi SSE 6.9 mph - N/A Rain Heavy Rain
4:55 AM 32.2 °F 25.8 °F 32.0 °F 99% 29.65 in 1.5 mi South 6.9 mph - N/A Snow Light Snow
5:15 AM 32.2 °F 26.7 °F 32.2 °F 100% 29.64 in 1.0 mi SSE 5.8 mph - N/A Snow Light Snow
5:35 AM 32.0 °F 26.4 °F 32.0 °F 100% 29.64 in 1.2 mi SSE 5.8 mph - N/A   Overcast
5:55 AM 32.0 °F 26.4 °F 32.0 °F 100% 29.63 in 1.5 mi SSE 5.8 mph - N/A   Overcast
6:15 AM 32.0 °F 24.8 °F 32.0 °F 100% 29.63 in 1.5 mi SSE 8.1 mph - N/A Snow Light Snow
6:35 AM 32.0 °F 26.4 °F 32.0 °F 100% 29.63 in 1.5 mi South 5.8 mph - N/A Snow Light Snow
7:15 AM 32.2 °F 26.7 °F 32.2 °F 100% 29.63 in 3.0 mi SSW 5.8 mph - N/A Rain Light Rain
7:35 AM 32.2 °F 25.8 °F 32.2 °F 100% 29.64 in 3.0 mi South 6.9 mph - N/A   Overcast
7:55 AM 32.5 °F 27.1 °F 32.5 °F 100% 29.64 in 5.0 mi South 5.8 mph - N/A   Overcast
8:15 AM 32.9 °F 27.5 °F 32.9 °F 100% 29.64 in 5.0 mi South 5.8 mph - N/A   Overcast
8:35 AM 32.9 °F 26.7 °F 32.5 °F 99% 29.64 in 3.0 mi SSW 6.9 mph - N/A   Drizzle
8:55 AM 32.9 °F 27.5 °F 32.7 °F 99% 29.64 in 4.0 mi SSW 5.8 mph - N/A   Overcast
9:15 AM 33.1 °F 26.1 °F 32.9 °F 99% 29.63 in 3.0 mi South 8.1 mph - 0.05 in   Overcast
9:35 AM 33.8 °F 27.0 °F 33.3 °F 98% 29.63 in 3.0 mi SSW 8.1 mph - 0.10 in   Overcast
9:55 AM 33.8 °F 25.8 °F 33.3 °F 98% 29.64 in 4.0 mi SW 10.4 mph - 0.11 in   Overcast
10:15 AM 34.7 °F 25.1 °F 34.0 °F 97% 29.64 in 5.0 mi WSW 15.0 mph - N/A   Overcast
10:35 AM 34.9 °F 25.3 °F 34.0 °F 97% 29.64 in 5.0 mi WSW 15.0 mph - N/A   Overcast
10:55 AM 34.9 °F 26.2 °F 34.0 °F 97% 29.63 in 4.0 mi WSW 12.7 mph - N/A   Overcast
11:15 AM 35.1 °F 26.4 °F 34.5 °F 98% 29.64 in 4.0 mi WSW 12.7 mph - N/A   Overcast
11:35 AM 35.1 °F 25.9 °F 34.3 °F 97% 29.64 in 3.0 mi WSW 13.8 mph - N/A   Overcast
11:55 AM 35.6 °F 24.2 °F 34.7 °F 97% 29.64 in 4.0 mi West 21.9 mph - N/A   Overcast
12:15 PM 35.8 °F 24.8 °F 34.2 °F 94% 29.65 in 5.0 mi West 20.7 mph 24.2 mph N/A   Overcast
12:35 PM 35.6 °F 24.0 °F 34.2 °F 94% 29.65 in 5.0 mi West 23.0 mph 28.8 mph N/A   Overcast
12:55 PM 35.6 °F 25.2 °F 33.6 °F 92% 29.65 in 7.0 mi West 18.4 mph 25.3 mph N/A   Overcast
1:15 PM 36.0 °F 25.3 °F 33.3 °F 90% 29.65 in 10.0 mi West 19.6 mph 25.3 mph N/A   Overcast
1:35 PM 36.9 °F 26.8 °F 33.4 °F 87% 29.66 in 10.0 mi West 18.4 mph - N/A   Overcast
1:55 PM 38.1 °F 29.5 °F 34.2 °F 86% 29.65 in 10.0 mi West 15.0 mph - N/A   Overcast
2:15 PM 39.2 °F 30.2 °F 34.9 °F 84% 29.65 in 10.0 mi West 17.3 mph 24.2 mph N/A   Overcast
2:35 PM 40.5 °F 31.5 °F 35.2 °F 82% 29.66 in 10.0 mi West 18.4 mph 23.0 mph N/A   Overcast
2:55 PM 41.9 °F 33.4 °F 35.8 °F 79% 29.66 in 10.0 mi West 18.4 mph 24.2 mph N/A   Mostly Cloudy
3:15 PM 41.0 °F 32.8 °F 34.9 °F 79% 29.67 in 10.0 mi West 16.1 mph 23.0 mph N/A   Scattered Clouds
3:35 PM 42.1 °F 33.6 °F 35.8 °F 78% 29.67 in 10.0 mi West 18.4 mph 23.0 mph N/A   Scattered Clouds
3:55 PM 41.9 °F 34.0 °F 36.7 °F 82% 29.67 in 10.0 mi WSW 16.1 mph - N/A   Scattered Clouds
4:15 PM 41.9 °F 33.7 °F 36.0 °F 79% 29.68 in 10.0 mi West 17.3 mph - N/A   Mostly Cloudy
4:35 PM 41.0 °F 33.1 °F 35.2 °F 80% 29.68 in 10.0 mi WSW 15.0 mph - N/A   Scattered Clouds
4:55 PM 41.0 °F 33.5 °F 34.3 °F 77% 29.69 in 10.0 mi West 13.8 mph - N/A   Clear
5:15 PM 39.6 °F 33.5 °F 34.2 °F 81% 29.69 in 10.0 mi WSW 9.2 mph - N/A   Scattered Clouds
5:35 PM 37.4 °F 30.8 °F 33.6 °F 86% 29.69 in 10.0 mi SW 9.2 mph - N/A   Scattered Clouds
5:55 PM 37.6 °F 25.9 °F 33.8 °F 86% 29.71 in 10.0 mi West 26.5 mph 32.2 mph N/A Rain Rain
6:35 PM 36.9 °F 29.1 °F 32.9 °F 86% 29.69 in 10.0 mi WSW 11.5 mph - N/A   Scattered Clouds
7:15 PM 37.4 °F 28.9 °F 32.0 °F 81% 29.70 in 10.0 mi WSW 13.8 mph 29.9 mph N/A   Scattered Clouds
7:35 PM 35.6 °F 28.0 °F 32.0 °F 87% 29.70 in 10.0 mi SW 10.4 mph - N/A   Mostly Cloudy
7:55 PM 34.7 °F 26.4 °F 32.0 °F 90% 29.70 in 10.0 mi SW 11.5 mph - N/A   Scattered Clouds
8:15 PM 34.0 °F 25.0 °F 31.8 °F 92% 29.70 in 10.0 mi WSW 12.7 mph - N/A   Clear
8:35 PM 33.8 °F 25.3 °F 31.8 °F 92% 29.71 in 10.0 mi WSW 11.5 mph - N/A   Clear
8:55 PM 34.0 °F 26.6 °F 31.5 °F 90% 29.71 in 10.0 mi WSW 9.2 mph - N/A   Clear
9:15 PM 34.2 °F 26.8 °F 31.1 °F 89% 29.71 in 10.0 mi WSW 9.2 mph - N/A   Clear
9:35 PM 33.8 °F 26.4 °F 30.9 °F 89% 29.71 in 10.0 mi WSW 9.2 mph - N/A   Unknown
9:55 PM 34.0 °F 26.6 °F 30.2 °F 86% 29.71 in 10.0 mi West 9.2 mph - N/A   Clear
10:15 PM 33.4 °F 26.6 °F 30.2 °F 88% 29.70 in 10.0 mi West 8.1 mph - N/A   Clear
10:55 PM 33.4 °F 25.4 °F 30.0 °F 87% 29.70 in 10.0 mi West 10.4 mph - N/A   Mostly Cloudy
11:15 PM 34.0 °F 26.0 °F 30.0 °F 85% 29.70 in 10.0 mi West 10.4 mph - N/A   Overcast
11:35 PM 33.1 °F 26.1 °F 30.2 °F 89% 29.70 in 10.0 mi WSW 8.1 mph - N/A   Mostly Cloudy
11:55 PM 33.1 °F 26.9 °F 30.2 °F 89% 29.69 in 10.0 mi West 6.9 mph - N/A   Mostly Cloudy